Time,TemperatureF,DewpointF,PressureIn,WindDirection,WindDirectionDegrees,WindSpeedMPH,WindSpeedGustMPH,Humidity,HourlyPrecipIn,Conditions,Clouds,dailyrainin,SoftwareType,DateUTC
2013-01-04 00:00:00,27.0,18.8,30.11,SW,218,6.3,10.7,71,0.00,,---,0.00,VWS V14.01,2013-01-04 05:00:00,
2013-01-04 00:02:00,27.0,18.8,30.11,SW,220,8.1,8.1,71,0.00,,---,0.00,VWS V14.01,2013-01-04 05:02:00,
2013-01-04 00:03:00,27.0,18.8,30.11,SW,229,7.2,7.2,71,0.00,,---,0.00,VWS V14.01,2013-01-04 05:03:00,
2013-01-04 00:04:00,27.0,18.8,30.11,SW,229,7.2,7.2,71,0.00,,---,0.00,VWS V14.01,2013-01-04 05:04:00,
2013-01-04 00:09:00,27.0,18.8,30.11,WSW,246,4.5,8.1,71,0.00,,---,0.00,VWS V14.01,2013-01-04 05:09:00,
2013-01-04 00:14:00,27.0,19.1,30.11,SSW,206,7.2,9.8,72,0.00,,---,0.00,VWS V14.01,2013-01-04 05:14:00,
2013-01-04 00:19:00,26.8,19.0,30.11,SW,235,8.1,8.1,72,0.00,,---,0.00,VWS V14.01,2013-01-04 05:19:00,
2013-01-04 00:24:00,26.8,19.0,30.11,SW,223,4.5,5.4,72,0.00,,---,0.00,VWS V14.01,2013-01-04 05:24:00,
2013-01-04 00:29:00,26.8,19.0,30.11,SSW,211,0.0,6.3,72,0.00,,---,0.00,VWS V14.01,2013-01-04 05:29:00,
2013-01-04 00:34:00,26.8,19.3,30.11,SW,228,0.0,0.0,73,0.00,,---,0.00,VWS V14.01,2013-01-04 05:34:00,
2013-01-04 00:39:00,27.0,19.5,30.11,SSW,212,8.1,8.1,73,0.00,,---,0.00,VWS V14.01,2013-01-04 05:39:00,
2013-01-04 00:44:00,27.0,19.5,30.11,SW,217,0.0,0.0,73,0.00,,---,0.00,VWS V14.01,2013-01-04 05:44:00,
2013-01-04 00:49:00,27.1,20.0,30.11,SSW,211,8.1,8.1,74,0.00,,---,0.00,VWS V14.01,2013-01-04 05:49:00,
2013-01-04 00:54:00,27.1,20.0,30.11,WSW,241,7.2,7.2,74,0.00,,---,0.00,VWS V14.01,2013-01-04 05:54:00,
2013-01-04 00:59:00,27.3,20.5,30.11,SSW,204,8.1,8.1,75,0.00,,---,0.00,VWS V14.01,2013-01-04 05:59:00,
2013-01-04 01:04:00,27.3,20.5,30.11,West,271,10.7,10.7,75,0.00,,---,0.00,VWS V14.01,2013-01-04 06:04:00,
2013-01-04 01:09:00,27.5,20.6,30.11,SW,227,6.3,9.8,75,0.00,,---,0.00,VWS V14.01,2013-01-04 06:09:00,
2013-01-04 01:14:00,27.5,20.9,30.11,SW,216,8.1,10.7,76,0.00,,---,0.00,VWS V14.01,2013-01-04 06:14:00,
2013-01-04 01:19:00,27.7,21.1,30.11,West,261,5.4,8.1,76,0.00,,---,0.00,VWS V14.01,2013-01-04 06:19:00,
2013-01-04 01:24:00,27.7,21.1,30.11,West,262,12.5,12.5,76,0.00,,---,0.00,VWS V14.01,2013-01-04 06:24:00,
2013-01-04 01:29:00,27.7,21.1,30.11,SW,217,8.9,10.7,76,0.00,,---,0.00,VWS V14.01,2013-01-04 06:29:00,
2013-01-04 01:34:00,27.7,21.4,30.11,SW,223,7.2,7.2,77,0.00,,---,0.00,VWS V14.01,2013-01-04 06:34:00,
2013-01-04 01:39:00,27.7,21.4,30.11,West,262,7.2,10.7,77,0.00,,---,0.00,VWS V14.01,2013-01-04 06:39:00,
2013-01-04 01:44:00,27.7,21.4,30.11,West,271,16.1,16.1,77,0.00,,---,0.00,VWS V14.01,2013-01-04 06:44:00,
2013-01-04 01:49:00,27.7,21.4,30.11,SSW,208,6.3,8.9,77,0.00,,---,0.00,VWS V14.01,2013-01-04 06:49:00,
2013-01-04 01:54:00,27.7,21.4,30.08,West,273,12.5,12.5,77,0.00,,---,0.00,VWS V14.01,2013-01-04 06:54:00,
2013-01-04 02:00:00,27.7,21.4,30.08,WSW,244,12.5,12.5,77,0.00,,---,0.00,VWS V14.01,2013-01-04 07:00:00,
2013-01-04 02:05:00,27.7,21.4,30.08,WNW,283,6.3,11.6,77,0.00,,---,0.00,VWS V14.01,2013-01-04 07:05:00,
2013-01-04 02:10:00,27.7,21.4,30.08,SW,221,7.2,10.7,77,0.00,,---,0.00,VWS V14.01,2013-01-04 07:10:00,
2013-01-04 02:15:00,27.7,21.1,30.08,SW,232,6.3,8.1,76,0.00,,---,0.00,VWS V14.01,2013-01-04 07:15:00,
2013-01-04 02:20:00,27.5,20.9,30.08,WSW,249,7.2,11.6,76,0.00,,---,0.00,VWS V14.01,2013-01-04 07:20:00,
2013-01-04 02:25:00,27.5,20.9,30.08,West,261,6.3,15.2,76,0.00,,---,0.00,VWS V14.01,2013-01-04 07:25:00,
2013-01-04 02:30:00,27.5,20.9,30.08,WSW,249,4.5,10.7,76,0.00,,---,0.00,VWS V14.01,2013-01-04 07:30:00,
2013-01-04 02:35:00,27.3,20.8,30.08,SSW,213,6.3,7.2,76,0.00,,---,0.00,VWS V14.01,2013-01-04 07:35:00,
2013-01-04 02:40:00,27.5,20.9,30.08,WSW,254,10.7,10.7,76,0.00,,---,0.00,VWS V14.01,2013-01-04 07:40:00,
2013-01-04 02:45:00,27.5,20.9,30.08,SW,217,6.3,8.1,76,0.00,,---,0.00,VWS V14.01,2013-01-04 07:45:00,
2013-01-04 02:50:00,27.5,20.9,30.08,WNW,296,9.8,9.8,76,0.00,,---,0.00,VWS V14.01,2013-01-04 07:50:00,
2013-01-04 02:55:00,27.5,20.9,30.08,SSW,213,10.7,12.5,76,0.00,,---,0.00,VWS V14.01,2013-01-04 07:55:00,
2013-01-04 03:00:00,27.5,20.9,30.08,SW,221,7.2,11.6,76,0.00,,---,0.00,VWS V14.01,2013-01-04 08:00:00,
2013-01-04 03:05:00,27.5,20.9,30.08,WSW,246,8.1,12.5,76,0.00,,---,0.00,VWS V14.01,2013-01-04 08:05:00,
2013-01-04 03:10:00,27.5,20.9,30.08,SW,218,6.3,11.6,76,0.00,,---,0.00,VWS V14.01,2013-01-04 08:10:00,
2013-01-04 03:15:00,27.5,20.9,30.08,SSE,168,8.1,8.1,76,0.00,,---,0.00,VWS V14.01,2013-01-04 08:15:00,
2013-01-04 03:20:00,27.5,20.9,30.08,SW,227,11.6,11.6,76,0.00,,---,0.00,VWS V14.01,2013-01-04 08:20:00,
2013-01-04 03:25:00,27.5,20.9,30.08,SW,226,17.4,17.4,76,0.00,,---,0.00,VWS V14.01,2013-01-04 08:25:00,
2013-01-04 03:31:00,27.5,20.9,30.08,SW,227,15.2,15.2,76,0.00,,---,0.00,VWS V14.01,2013-01-04 08:31:00,
2013-01-04 03:36:00,27.5,20.9,30.08,SSW,201,8.1,10.7,76,0.00,,---,0.00,VWS V14.01,2013-01-04 08:36:00,
2013-01-04 03:41:00,27.5,20.9,30.08,SSE,163,5.4,8.1,76,0.00,,---,0.00,VWS V14.01,2013-01-04 08:41:00,
2013-01-04 03:46:00,27.5,20.9,30.08,WSW,238,16.1,16.1,76,0.00,,---,0.00,VWS V14.01,2013-01-04 08:46:00,
2013-01-04 03:51:00,27.5,20.9,30.08,SW,229,17.4,21.9,76,0.00,,---,0.00,VWS V14.01,2013-01-04 08:51:00,
2013-01-04 03:56:00,27.5,20.9,30.08,WSW,239,5.4,8.1,76,0.00,,---,0.00,VWS V14.01,2013-01-04 08:56:00,
2013-01-04 04:01:00,27.5,20.9,30.08,West,261,17.4,17.4,76,0.00,,---,0.00,VWS V14.01,2013-01-04 09:01:00,
2013-01-04 04:06:00,27.5,20.9,30.08,West,271,6.3,15.2,76,0.00,,---,0.00,VWS V14.01,2013-01-04 09:06:00,
2013-01-04 04:11:00,27.5,20.9,30.08,SSW,197,12.5,12.5,76,0.00,,---,0.00,VWS V14.01,2013-01-04 09:11:00,
2013-01-04 04:16:00,27.5,20.6,30.08,WSW,246,8.1,10.7,75,0.00,,---,0.00,VWS V14.01,2013-01-04 09:16:00,
2013-01-04 04:21:00,27.5,20.6,30.08,WSW,238,11.6,11.6,75,0.00,,---,0.00,VWS V14.01,2013-01-04 09:21:00,
2013-01-04 04:26:00,27.5,20.6,30.08,WSW,238,16.6,16.6,75,0.00,,---,0.00,VWS V14.01,2013-01-04 09:26:00,
2013-01-04 04:31:00,27.5,20.3,30.08,WSW,255,8.1,12.5,74,0.00,,---,0.00,VWS V14.01,2013-01-04 09:31:00,
2013-01-04 04:36:00,27.5,20.3,30.05,WSW,245,11.6,17.4,74,0.00,,---,0.00,VWS V14.01,2013-01-04 09:36:00,
2013-01-04 04:41:00,27.5,20.0,30.05,WNW,283,21.9,21.9,73,0.00,,---,0.00,VWS V14.01,2013-01-04 09:41:00,
2013-01-04 04:46:00,27.5,19.7,30.05,WNW,285,21.0,21.9,72,0.00,,---,0.00,VWS V14.01,2013-01-04 09:46:00,
2013-01-04 04:51:00,27.5,19.4,30.05,WNW,297,6.3,7.2,71,0.00,,---,0.00,VWS V14.01,2013-01-04 09:51:00,
2013-01-04 04:56:00,27.5,19.4,30.05,WSW,249,10.7,15.2,71,0.00,,---,0.00,VWS V14.01,2013-01-04 09:56:00,
2013-01-04 05:02:00,27.5,19.4,30.05,West,271,6.3,6.3,71,0.00,,---,0.00,VWS V14.01,2013-01-04 10:02:00,
2013-01-04 05:07:00,27.5,19.4,30.05,SW,221,10.7,12.5,71,0.00,,---,0.00,VWS V14.01,2013-01-04 10:07:00,
2013-01-04 05:12:00,27.5,19.4,30.05,WSW,255,12.5,12.5,71,0.00,,---,0.00,VWS V14.01,2013-01-04 10:12:00,
2013-01-04 05:17:00,27.5,19.4,30.05,West,280,6.3,10.7,71,0.00,,---,0.00,VWS V14.01,2013-01-04 10:17:00,
2013-01-04 05:22:00,27.5,19.0,30.05,East,90,6.3,16.1,70,0.00,,---,0.00,VWS V14.01,2013-01-04 10:22:00,
2013-01-04 05:27:00,27.5,19.0,30.05,SW,226,12.5,12.5,70,0.00,,---,0.00,VWS V14.01,2013-01-04 10:27:00,
2013-01-04 05:32:00,27.5,19.0,30.05,SW,227,6.3,11.6,70,0.00,,---,0.00,VWS V14.01,2013-01-04 10:32:00,
2013-01-04 05:37:00,27.5,19.0,30.05,WSW,247,9.8,11.6,70,0.00,,---,0.00,VWS V14.01,2013-01-04 10:37:00,
2013-01-04 05:42:00,27.5,19.0,30.05,NW,305,10.7,11.6,70,0.00,,---,0.00,VWS V14.01,2013-01-04 10:42:00,
2013-01-04 05:47:00,27.3,18.8,30.05,West,260,10.7,10.7,70,0.00,,---,0.00,VWS V14.01,2013-01-04 10:47:00,
2013-01-04 05:52:00,27.3,18.8,30.05,South,187,7.2,7.2,70,0.00,,---,0.00,VWS V14.01,2013-01-04 10:52:00,
2013-01-04 05:57:00,27.3,18.8,30.05,West,261,6.3,6.3,70,0.00,,---,0.00,VWS V14.01,2013-01-04 10:57:00,
2013-01-04 06:02:00,27.3,18.8,30.05,WSW,239,6.3,12.5,70,0.00,,---,0.00,VWS V14.01,2013-01-04 11:02:00,
2013-01-04 06:07:00,27.3,18.8,30.05,West,263,11.6,11.6,70,0.00,,---,0.00,VWS V14.01,2013-01-04 11:07:00,
2013-01-04 06:13:00,27.3,18.8,30.05,SSW,201,17.4,21.9,70,0.00,,---,0.00,VWS V14.01,2013-01-04 11:13:00,
2013-01-04 06:18:00,27.1,18.7,30.05,West,280,16.6,21.9,70,0.00,,---,0.00,VWS V14.01,2013-01-04 11:18:00,
2013-01-04 06:23:00,27.1,18.7,30.05,WNW,282,11.6,21.0,70,0.00,,---,0.00,VWS V14.01,2013-01-04 11:23:00,
2013-01-04 06:28:00,27.1,18.3,30.05,West,260,16.6,16.6,69,0.00,,---,0.00,VWS V14.01,2013-01-04 11:28:00,
2013-01-04 06:33:00,27.0,17.8,30.05,SW,227,12.5,15.2,68,0.00,,---,0.00,VWS V14.01,2013-01-04 11:33:00,
2013-01-04 06:38:00,27.0,17.8,30.05,SSE,166,7.2,11.6,68,0.00,,---,0.00,VWS V14.01,2013-01-04 11:38:00,
2013-01-04 06:43:00,27.0,17.8,30.05,South,187,6.3,11.6,68,0.00,,---,0.00,VWS V14.01,2013-01-04 11:43:00,
2013-01-04 06:48:00,27.0,17.8,30.05,South,178,12.5,12.5,68,0.00,,---,0.00,VWS V14.01,2013-01-04 11:48:00,
2013-01-04 06:53:00,26.8,17.3,30.05,WNW,295,12.5,12.5,67,0.00,,---,0.00,VWS V14.01,2013-01-04 11:53:00,
2013-01-04 06:58:00,26.6,17.5,30.05,West,265,7.2,7.2,68,0.00,,---,0.00,VWS V14.01,2013-01-04 11:58:00,
2013-01-04 07:03:00,26.6,17.5,30.05,WSW,243,12.5,19.2,68,0.00,,---,0.00,VWS V14.01,2013-01-04 12:03:00,
2013-01-04 07:08:00,26.4,17.6,30.05,SE,146,7.2,7.2,69,0.00,,---,0.00,VWS V14.01,2013-01-04 12:08:00,
2013-01-04 07:13:00,26.4,17.6,30.05,West,262,11.6,21.9,69,0.00,,---,0.00,VWS V14.01,2013-01-04 12:13:00,
2013-01-04 07:18:00,26.1,17.3,30.05,WSW,241,17.4,17.4,69,0.00,,---,0.00,VWS V14.01,2013-01-04 12:18:00,
2013-01-04 07:23:00,26.1,17.3,30.05,West,263,16.1,21.9,69,0.00,,---,0.00,VWS V14.01,2013-01-04 12:23:00,
2013-01-04 07:28:00,25.9,17.1,30.05,WSW,242,15.2,17.4,69,0.00,,---,0.00,VWS V14.01,2013-01-04 12:28:00,
2013-01-04 07:33:00,25.5,16.4,30.05,SSW,208,5.4,6.3,68,0.00,,---,0.00,VWS V14.01,2013-01-04 12:33:00,
2013-01-04 07:39:00,25.3,16.3,30.08,WSW,251,5.4,6.3,68,0.00,,---,0.00,VWS V14.01,2013-01-04 12:39:00,
2013-01-04 07:44:00,25.2,16.4,30.08,WSW,244,9.8,12.5,69,0.00,,---,0.00,VWS V14.01,2013-01-04 12:44:00,
2013-01-04 07:49:00,25.0,16.3,30.08,WSW,248,10.7,10.7,69,0.00,,---,0.00,VWS V14.01,2013-01-04 12:49:00,
2013-01-04 07:54:00,24.8,16.1,30.05,West,261,8.1,11.6,69,0.00,,---,0.00,VWS V14.01,2013-01-04 12:54:00,
2013-01-04 07:59:00,24.6,16.2,30.05,SSW,210,6.3,8.1,70,0.00,,---,0.00,VWS V14.01,2013-01-04 12:59:00,
2013-01-04 08:04:00,24.4,16.1,30.05,SSW,206,16.1,16.1,70,0.00,,---,0.00,VWS V14.01,2013-01-04 13:04:00,
2013-01-04 08:09:00,24.4,16.1,30.05,SW,230,9.8,9.8,70,0.00,,---,0.00,VWS V14.01,2013-01-04 13:09:00,
2013-01-04 08:14:00,24.3,16.2,30.05,WSW,237,10.7,15.2,71,0.00,,---,0.00,VWS V14.01,2013-01-04 13:14:00,
2013-01-04 08:19:00,24.1,16.0,30.05,WSW,245,24.6,24.6,71,0.00,,---,0.00,VWS V14.01,2013-01-04 13:19:00,
2013-01-04 08:24:00,23.9,15.9,30.05,WSW,245,8.1,10.7,71,0.00,,---,0.00,VWS V14.01,2013-01-04 13:24:00,
2013-01-04 08:29:00,23.9,16.2,30.05,WNW,288,10.7,15.2,72,0.00,,---,0.00,VWS V14.01,2013-01-04 13:29:00,
2013-01-04 08:34:00,23.7,16.0,30.05,SW,227,10.7,10.7,72,0.00,,---,0.00,VWS V14.01,2013-01-04 13:34:00,
2013-01-04 08:39:00,23.5,15.9,30.05,SSW,206,12.5,12.5,72,0.00,,---,0.00,VWS V14.01,2013-01-04 13:39:00,
2013-01-04 08:44:00,23.5,15.9,30.05,West,271,21.9,21.9,72,0.00,,---,0.00,VWS V14.01,2013-01-04 13:44:00,
2013-01-04 08:49:00,23.5,15.9,30.05,WNW,301,5.4,7.2,72,0.00,,---,0.00,VWS V14.01,2013-01-04 13:49:00,
2013-01-04 08:55:00,23.4,15.7,30.05,West,274,20.1,21.9,72,0.00,,---,0.00,VWS V14.01,2013-01-04 13:55:00,
2013-01-04 09:00:00,23.2,15.5,30.05,SW,234,7.2,12.5,72,0.00,,---,0.00,VWS V14.01,2013-01-04 14:00:00,
2013-01-04 09:05:00,23.2,15.5,30.05,WSW,252,11.6,11.6,72,0.00,,---,0.00,VWS V14.01,2013-01-04 14:05:00,
2013-01-04 09:10:00,23.0,15.6,30.05,SSW,204,6.3,12.5,73,0.00,,---,0.00,VWS V14.01,2013-01-04 14:10:00,
2013-01-04 09:15:00,23.0,15.6,30.05,SW,223,9.8,10.7,73,0.00,,---,0.00,VWS V14.01,2013-01-04 14:15:00,
2013-01-04 09:20:00,23.0,15.6,30.05,SSW,212,16.6,20.1,73,0.00,,---,0.00,VWS V14.01,2013-01-04 14:20:00,
2013-01-04 09:25:00,22.8,15.5,30.08,WSW,237,7.2,11.6,73,0.00,,---,0.00,VWS V14.01,2013-01-04 14:25:00,
2013-01-04 09:30:00,23.0,15.6,30.08,West,281,8.1,14.3,73,0.00,,---,0.00,VWS V14.01,2013-01-04 14:30:00,
2013-01-04 09:35:00,23.0,15.6,30.08,SSW,200,16.6,16.6,73,0.00,,---,0.00,VWS V14.01,2013-01-04 14:35:00,
2013-01-04 09:40:00,23.0,15.6,30.05,SSW,201,9.8,10.7,73,0.00,,---,0.00,VWS V14.01,2013-01-04 14:40:00,
2013-01-04 09:45:00,22.8,15.2,30.05,SSW,212,12.5,12.5,72,0.00,,---,0.00,VWS V14.01,2013-01-04 14:45:00,
2013-01-04 09:50:00,22.8,15.2,30.05,SW,233,12.5,12.5,72,0.00,,---,0.00,VWS V14.01,2013-01-04 14:50:00,
2013-01-04 09:55:00,22.8,14.8,30.05,South,175,10.7,10.7,71,0.00,,---,0.00,VWS V14.01,2013-01-04 14:55:00,
2013-01-04 10:00:00,23.0,15.0,30.05,WSW,237,10.7,20.1,71,0.00,,---,0.00,VWS V14.01,2013-01-04 15:00:00,
2013-01-04 10:05:00,23.2,14.9,30.05,WSW,245,15.2,15.2,70,0.00,,---,0.00,VWS V14.01,2013-01-04 15:05:00,
2013-01-04 10:10:00,23.2,14.9,30.08,West,266,21.9,21.9,70,0.00,,---,0.00,VWS V14.01,2013-01-04 15:10:00,
2013-01-04 10:15:00,23.4,14.7,30.08,SSE,152,12.5,12.5,69,0.00,,---,0.00,VWS V14.01,2013-01-04 15:15:00,
2013-01-04 10:20:00,23.5,14.6,30.08,SSW,193,16.1,19.2,68,0.00,,---,0.00,VWS V14.01,2013-01-04 15:20:00,
2013-01-04 10:25:00,23.5,14.6,30.08,WNW,300,10.7,10.7,68,0.00,,---,0.00,VWS V14.01,2013-01-04 15:25:00,
2013-01-04 10:30:00,23.7,14.7,30.08,West,281,16.1,17.4,68,0.00,,---,0.00,VWS V14.01,2013-01-04 15:30:00,
2013-01-04 10:36:00,23.9,14.9,30.08,SSW,210,5.4,8.1,68,0.00,,---,0.00,VWS V14.01,2013-01-04 15:36:00,
2013-01-04 10:41:00,24.1,15.1,30.08,SW,221,7.2,7.2,68,0.00,,---,0.00,VWS V14.01,2013-01-04 15:41:00,
2013-01-04 10:46:00,24.3,14.9,30.08,SW,218,11.6,20.1,67,0.00,,---,0.00,VWS V14.01,2013-01-04 15:46:00,
2013-01-04 10:51:00,24.4,15.1,30.08,WSW,245,21.0,21.0,67,0.00,,---,0.00,VWS V14.01,2013-01-04 15:51:00,
2013-01-04 10:56:00,24.8,15.4,30.08,WSW,243,11.6,16.1,67,0.00,,---,0.00,VWS V14.01,2013-01-04 15:56:00,
2013-01-04 11:01:00,25.2,15.4,30.08,SW,215,10.7,11.6,66,0.00,,---,0.00,VWS V14.01,2013-01-04 16:01:00,
2013-01-04 11:06:00,25.5,15.4,30.05,WNW,283,9.8,10.7,65,0.00,,---,0.00,VWS V14.01,2013-01-04 16:06:00,
2013-01-04 11:11:00,25.9,15.0,30.05,SW,220,11.6,20.1,63,0.00,,---,0.00,VWS V14.01,2013-01-04 16:11:00,
2013-01-04 11:16:00,26.4,15.2,30.05,WSW,246,19.2,19.2,62,0.00,,---,0.00,VWS V14.01,2013-01-04 16:16:00,
2013-01-04 11:21:00,27.0,14.9,30.05,WSW,244,9.8,20.1,60,0.00,,---,0.00,VWS V14.01,2013-01-04 16:21:00,
2013-01-04 11:26:00,27.7,16.0,30.05,WSW,251,8.1,15.2,61,0.00,,---,0.00,VWS V14.01,2013-01-04 16:26:00,
2013-01-04 11:31:00,28.2,15.8,30.05,WSW,239,12.5,12.5,59,0.00,,---,0.00,VWS V14.01,2013-01-04 16:31:00,
2013-01-04 11:36:00,28.6,15.7,30.05,SSW,212,15.2,17.4,58,0.00,,---,0.00,VWS V14.01,2013-01-04 16:36:00,
2013-01-04 11:41:00,28.9,15.2,30.05,West,274,11.6,11.6,56,0.00,,---,0.00,VWS V14.01,2013-01-04 16:41:00,
2013-01-04 11:46:00,28.9,14.8,30.05,SW,227,16.1,16.1,55,0.00,,---,0.00,VWS V14.01,2013-01-04 16:46:00,
2013-01-04 11:51:00,28.9,14.4,30.05,WNW,288,14.3,20.1,54,0.00,,---,0.00,VWS V14.01,2013-01-04 16:51:00,
2013-01-04 11:56:00,28.8,14.6,30.05,WSW,254,5.4,11.6,55,0.00,,---,0.00,VWS V14.01,2013-01-04 16:56:00,
2013-01-04 12:02:00,29.3,14.7,30.05,SW,233,7.2,9.8,54,0.00,,---,0.00,VWS V14.01,2013-01-04 17:02:00,
2013-01-04 12:07:00,29.5,14.9,30.05,NW,312,17.4,17.4,54,0.00,,---,0.00,VWS V14.01,2013-01-04 17:07:00,
2013-01-04 12:12:00,29.5,14.9,30.05,South,184,5.4,10.7,54,0.00,,---,0.00,VWS V14.01,2013-01-04 17:12:00,
2013-01-04 12:17:00,29.7,14.6,30.05,SW,229,7.2,10.7,53,0.00,,---,0.00,VWS V14.01,2013-01-04 17:17:00,
2013-01-04 12:22:00,29.1,14.1,30.02,SSE,159,10.7,14.3,53,0.00,,---,0.00,VWS V14.01,2013-01-04 17:22:00,
2013-01-04 12:27:00,28.2,13.3,30.02,SSW,198,5.4,12.5,53,0.00,,---,0.00,VWS V14.01,2013-01-04 17:27:00,
2013-01-04 12:32:00,28.2,14.1,30.02,SSW,199,7.2,10.7,55,0.00,,---,0.00,VWS V14.01,2013-01-04 17:32:00,
2013-01-04 12:37:00,28.4,14.3,30.02,South,172,11.6,16.1,55,0.00,,---,0.00,VWS V14.01,2013-01-04 17:37:00,
2013-01-04 12:42:00,28.6,14.1,30.02,West,263,21.0,21.0,54,0.00,,---,0.00,VWS V14.01,2013-01-04 17:42:00,
2013-01-04 12:47:00,28.4,13.9,30.02,SSE,147,12.5,12.5,54,0.00,,---,0.00,VWS V14.01,2013-01-04 17:47:00,
2013-01-04 12:52:00,28.2,13.7,30.02,SW,226,17.4,23.7,54,0.00,,---,0.00,VWS V14.01,2013-01-04 17:52:00,
2013-01-04 12:57:00,28.0,14.0,30.02,SW,219,8.1,15.2,55,0.00,,---,0.00,VWS V14.01,2013-01-04 17:57:00,
2013-01-04 13:02:00,28.8,15.1,30.02,ESE,109,12.5,16.1,56,0.00,,---,0.00,VWS V14.01,2013-01-04 18:02:00,
2013-01-04 13:07:00,28.9,14.4,30.02,WSW,245,12.5,21.0,54,0.00,,---,0.00,VWS V14.01,2013-01-04 18:07:00,
2013-01-04 13:12:00,28.8,14.2,30.02,SW,224,16.1,17.4,54,0.00,,---,0.00,VWS V14.01,2013-01-04 18:12:00,
2013-01-04 13:17:00,28.8,14.2,30.02,South,178,7.2,12.5,54,0.00,,---,0.00,VWS V14.01,2013-01-04 18:17:00,
2013-01-04 13:22:00,29.3,15.1,29.99,SSW,194,11.6,11.6,55,0.00,,---,0.00,VWS V14.01,2013-01-04 18:22:00,
2013-01-04 13:27:00,29.5,14.9,29.99,SW,223,7.2,7.2,54,0.00,,---,0.00,VWS V14.01,2013-01-04 18:27:00,
2013-01-04 13:32:00,29.5,14.9,29.99,SSW,203,12.5,12.5,54,0.00,,---,0.00,VWS V14.01,2013-01-04 18:32:00,
2013-01-04 13:37:00,29.8,15.2,29.99,WSW,249,10.7,10.7,54,0.00,,---,0.00,VWS V14.01,2013-01-04 18:37:00,
2013-01-04 13:42:00,30.0,15.4,29.99,SW,215,8.1,12.5,54,0.00,,---,0.00,VWS V14.01,2013-01-04 18:42:00,
2013-01-04 13:47:00,30.2,15.1,29.99,WNW,282,21.0,21.0,53,0.00,,---,0.00,VWS V14.01,2013-01-04 18:47:00,
2013-01-04 13:52:00,30.0,15.0,29.99,WSW,239,10.7,15.2,53,0.00,,---,0.00,VWS V14.01,2013-01-04 18:52:00,
2013-01-04 13:58:00,30.6,15.5,29.99,SSW,212,8.1,16.6,53,0.00,,---,0.00,VWS V14.01,2013-01-04 18:58:00,
2013-01-04 14:03:00,30.6,15.0,29.99,WSW,238,16.1,22.8,52,0.00,,---,0.00,VWS V14.01,2013-01-04 19:03:00,
2013-01-04 14:08:00,30.6,15.0,29.99,SSW,198,12.5,16.1,52,0.00,,---,0.00,VWS V14.01,2013-01-04 19:08:00,
2013-01-04 14:13:00,30.6,15.0,29.99,SSW,211,10.7,21.9,52,0.00,,---,0.00,VWS V14.01,2013-01-04 19:13:00,
2013-01-04 14:18:00,30.7,15.2,29.99,SW,216,6.3,9.8,52,0.00,,---,0.00,VWS V14.01,2013-01-04 19:18:00,
2013-01-04 14:23:00,30.6,15.0,29.99,West,266,24.6,24.6,52,0.00,,---,0.00,VWS V14.01,2013-01-04 19:23:00,
2013-01-04 14:28:00,30.7,15.2,29.99,SSW,212,12.5,17.4,52,0.00,,---,0.00,VWS V14.01,2013-01-04 19:28:00,
2013-01-04 14:33:00,30.7,15.2,29.99,NW,319,8.1,10.7,52,0.00,,---,0.00,VWS V14.01,2013-01-04 19:33:00,
2013-01-04 14:38:00,30.9,15.4,29.99,SW,230,11.6,15.2,52,0.00,,---,0.00,VWS V14.01,2013-01-04 19:38:00,
2013-01-04 14:43:00,30.9,15.4,29.99,West,264,7.2,21.9,52,0.00,,---,0.00,VWS V14.01,2013-01-04 19:43:00,
2013-01-04 14:48:00,31.3,15.7,29.99,SW,229,26.4,26.4,52,0.00,,---,0.00,VWS V14.01,2013-01-04 19:48:00,
2013-01-04 14:53:00,31.3,15.3,29.99,North,355,21.0,21.0,51,0.00,,---,0.00,VWS V14.01,2013-01-04 19:53:00,
2013-01-04 14:58:00,31.5,15.4,29.99,WSW,243,16.6,16.6,51,0.00,,---,0.00,VWS V14.01,2013-01-04 19:58:00,
2013-01-04 15:03:00,31.1,15.1,29.99,WNW,286,16.1,16.1,51,0.00,,---,0.00,VWS V14.01,2013-01-04 20:03:00,
2013-01-04 15:08:00,31.1,15.1,29.99,SSW,213,16.1,20.1,51,0.00,,---,0.00,VWS V14.01,2013-01-04 20:08:00,
2013-01-04 15:13:00,30.9,14.9,29.99,NW,324,15.2,24.6,51,0.00,,---,0.00,VWS V14.01,2013-01-04 20:13:00,
2013-01-04 15:18:00,30.2,14.3,29.99,SW,220,13.4,21.9,51,0.00,,---,0.00,VWS V14.01,2013-01-04 20:18:00,
2013-01-04 15:23:00,29.8,14.4,29.99,SW,227,10.7,17.4,52,0.00,,---,0.00,VWS V14.01,2013-01-04 20:23:00,
2013-01-04 15:28:00,29.8,14.4,29.99,NNW,336,15.2,24.6,52,0.00,,---,0.00,VWS V14.01,2013-01-04 20:28:00,
2013-01-04 15:33:00,29.8,14.4,29.99,SSE,148,12.5,16.1,52,0.00,,---,0.00,VWS V14.01,2013-01-04 20:33:00,
2013-01-04 15:38:00,29.7,14.2,29.99,WSW,251,10.7,10.7,52,0.00,,---,0.00,VWS V14.01,2013-01-04 20:38:00,
2013-01-04 15:44:00,29.7,14.2,29.99,SSE,151,21.9,21.9,52,0.00,,---,0.00,VWS V14.01,2013-01-04 20:44:00,
2013-01-04 15:49:00,29.5,14.0,29.99,SW,233,10.7,16.1,52,0.00,,---,0.00,VWS V14.01,2013-01-04 20:49:00,
2013-01-04 15:54:00,29.5,14.0,30.02,SW,234,5.4,8.1,52,0.00,,---,0.00,VWS V14.01,2013-01-04 20:54:00,
2013-01-04 15:59:00,29.3,13.9,30.02,West,269,17.4,17.4,52,0.00,,---,0.00,VWS V14.01,2013-01-04 20:59:00,
2013-01-04 16:04:00,29.3,13.9,30.02,SW,222,24.6,24.6,52,0.00,,---,0.00,VWS V14.01,2013-01-04 21:04:00,
2013-01-04 16:09:00,28.9,13.5,30.02,WSW,242,10.7,16.6,52,0.00,,---,0.00,VWS V14.01,2013-01-04 21:09:00,
2013-01-04 16:14:00,28.8,13.4,30.02,SSW,209,17.4,25.5,52,0.00,,---,0.00,VWS V14.01,2013-01-04 21:14:00,
2013-01-04 16:19:00,28.6,13.2,30.02,South,190,15.2,20.1,52,0.00,,---,0.00,VWS V14.01,2013-01-04 21:19:00,
2013-01-04 16:24:00,28.2,12.9,30.02,WSW,251,17.4,20.1,52,0.00,,---,0.00,VWS V14.01,2013-01-04 21:24:00,
2013-01-04 16:29:00,28.0,12.7,30.02,WNW,283,10.7,10.7,52,0.00,,---,0.00,VWS V14.01,2013-01-04 21:29:00,
2013-01-04 16:34:00,27.9,13.0,30.02,South,191,15.2,26.4,53,0.00,,---,0.00,VWS V14.01,2013-01-04 21:34:00,
2013-01-04 16:39:00,27.9,13.0,30.02,SSW,202,6.3,7.2,53,0.00,,---,0.00,VWS V14.01,2013-01-04 21:39:00,
2013-01-04 16:44:00,27.7,12.8,30.02,WSW,252,10.7,10.7,53,0.00,,---,0.00,VWS V14.01,2013-01-04 21:44:00,
2013-01-04 16:49:00,27.5,12.6,30.02,South,171,7.2,7.2,53,0.00,,---,0.00,VWS V14.01,2013-01-04 21:49:00,
2013-01-04 16:54:00,27.3,12.5,30.02,South,175,10.7,10.7,53,0.00,,---,0.00,VWS V14.01,2013-01-04 21:54:00,
2013-01-04 16:59:00,27.1,12.3,30.02,SSE,161,8.1,21.9,53,0.00,,---,0.00,VWS V14.01,2013-01-04 21:59:00,
2013-01-04 17:04:00,27.1,12.7,30.02,SSE,162,5.4,5.4,54,0.00,,---,0.00,VWS V14.01,2013-01-04 22:04:00,
2013-01-04 17:09:00,27.0,12.6,30.02,SW,235,16.6,16.6,54,0.00,,---,0.00,VWS V14.01,2013-01-04 22:09:00,
2013-01-04 17:15:00,26.8,12.4,30.02,SW,226,8.1,10.7,54,0.00,,---,0.00,VWS V14.01,2013-01-04 22:15:00,
2013-01-04 17:20:00,26.8,12.4,30.02,South,187,7.2,14.3,54,0.00,,---,0.00,VWS V14.01,2013-01-04 22:20:00,
2013-01-04 17:25:00,26.6,12.6,30.02,SSE,157,5.4,12.5,55,0.00,,---,0.00,VWS V14.01,2013-01-04 22:25:00,
2013-01-04 17:30:00,26.6,12.6,30.02,SSW,197,8.1,16.1,55,0.00,,---,0.00,VWS V14.01,2013-01-04 22:30:00,
2013-01-04 17:35:00,26.4,12.5,30.02,SW,214,16.6,16.6,55,0.00,,---,0.00,VWS V14.01,2013-01-04 22:35:00,
2013-01-04 17:40:00,26.4,12.9,30.05,ESE,102,6.3,8.1,56,0.00,,---,0.00,VWS V14.01,2013-01-04 22:40:00,
2013-01-04 17:45:00,26.2,12.7,30.05,SW,219,11.6,15.2,56,0.00,,---,0.00,VWS V14.01,2013-01-04 22:45:00,
2013-01-04 17:50:00,26.2,12.7,30.05,West,273,16.6,16.6,56,0.00,,---,0.00,VWS V14.01,2013-01-04 22:50:00,
2013-01-04 17:55:00,26.1,12.5,30.05,SSW,208,7.2,9.8,56,0.00,,---,0.00,VWS V14.01,2013-01-04 22:55:00,
2013-01-04 18:00:00,26.1,12.5,30.05,SW,235,12.5,17.4,56,0.00,,---,0.00,VWS V14.01,2013-01-04 23:00:00,
2013-01-04 18:05:00,26.1,12.9,30.05,WSW,248,6.3,12.5,57,0.00,,---,0.00,VWS V14.01,2013-01-04 23:05:00,
2013-01-04 18:10:00,26.1,12.9,30.05,SSW,210,11.6,11.6,57,0.00,,---,0.00,VWS V14.01,2013-01-04 23:10:00,
2013-01-04 18:15:00,26.1,12.9,30.05,SSW,200,6.3,11.6,57,0.00,,---,0.00,VWS V14.01,2013-01-04 23:15:00,
2013-01-04 18:20:00,25.9,12.8,30.05,WSW,245,11.6,11.6,57,0.00,,---,0.00,VWS V14.01,2013-01-04 23:20:00,
2013-01-04 18:25:00,25.7,12.6,30.08,SW,223,8.1,8.1,57,0.00,,---,0.00,VWS V14.01,2013-01-04 23:25:00,
2013-01-04 18:30:00,25.9,13.1,30.08,WSW,247,6.3,7.2,58,0.00,,---,0.00,VWS V14.01,2013-01-04 23:30:00,
2013-01-04 18:35:00,25.9,13.1,30.08,NW,313,7.2,7.2,58,0.00,,---,0.00,VWS V14.01,2013-01-04 23:35:00,
2013-01-04 18:40:00,25.9,13.1,30.08,NW,316,10.7,10.7,58,0.00,,---,0.00,VWS V14.01,2013-01-04 23:40:00,
2013-01-04 18:45:00,25.7,13.0,30.08,WSW,253,12.5,12.5,58,0.00,,---,0.00,VWS V14.01,2013-01-04 23:45:00,
2013-01-04 18:50:00,25.7,13.4,30.08,SSW,208,11.6,11.6,59,0.00,,---,0.00,VWS V14.01,2013-01-04 23:50:00,
2013-01-04 18:55:00,25.7,13.4,30.08,SW,218,8.1,8.1,59,0.00,,---,0.00,VWS V14.01,2013-01-04 23:55:00,
2013-01-04 19:00:00,25.5,13.2,30.08,SW,223,8.1,8.1,59,0.00,,---,0.00,VWS V14.01,2013-01-05 00:00:00,
2013-01-04 19:06:00,25.3,13.0,30.08,SSW,202,6.3,16.1,59,0.00,,---,0.00,VWS V14.01,2013-01-05 00:06:00,
2013-01-04 19:11:00,25.0,12.7,30.08,SW,225,12.5,12.5,59,0.00,,---,0.00,VWS V14.01,2013-01-05 00:11:00,
2013-01-04 19:16:00,25.0,12.7,30.08,SW,217,4.5,12.5,59,0.00,,---,0.00,VWS V14.01,2013-01-05 00:16:00,
2013-01-04 19:21:00,24.8,12.9,30.08,WSW,257,12.5,12.5,60,0.00,,---,0.00,VWS V14.01,2013-01-05 00:21:00,
2013-01-04 19:26:00,24.8,13.3,30.08,WNW,285,8.1,12.5,61,0.00,,---,0.00,VWS V14.01,2013-01-05 00:26:00,
2013-01-04 19:31:00,24.6,13.1,30.08,SW,235,12.5,16.1,61,0.00,,---,0.00,VWS V14.01,2013-01-05 00:31:00,
2013-01-04 19:36:00,24.6,13.1,30.08,WSW,258,5.4,7.2,61,0.00,,---,0.00,VWS V14.01,2013-01-05 00:36:00,
2013-01-04 19:41:00,24.4,12.9,30.08,SSW,208,0.0,7.2,61,0.00,,---,0.00,VWS V14.01,2013-01-05 00:41:00,
2013-01-04 19:46:00,24.4,13.3,30.08,WNW,289,10.7,19.2,62,0.00,,---,0.00,VWS V14.01,2013-01-05 00:46:00,
2013-01-04 19:51:00,24.4,13.3,30.08,SW,232,13.4,16.1,62,0.00,,---,0.00,VWS V14.01,2013-01-05 00:51:00,
2013-01-04 19:56:00,24.4,13.7,30.08,SW,227,21.0,21.0,63,0.00,,---,0.00,VWS V14.01,2013-01-05 00:56:00,
2013-01-04 20:01:00,24.4,13.7,30.08,WSW,244,11.6,11.6,63,0.00,,---,0.00,VWS V14.01,2013-01-05 01:01:00,
2013-01-04 20:06:00,24.4,13.7,30.08,WSW,238,8.1,17.4,63,0.00,,---,0.00,VWS V14.01,2013-01-05 01:06:00,
2013-01-04 20:11:00,24.3,13.5,30.08,West,272,8.1,12.5,63,0.00,,---,0.00,VWS V14.01,2013-01-05 01:11:00,
2013-01-04 20:16:00,24.3,13.9,30.08,SW,219,16.1,16.6,64,0.00,,---,0.00,VWS V14.01,2013-01-05 01:16:00,
2013-01-04 20:21:00,24.3,13.9,30.11,WSW,238,15.2,15.2,64,0.00,,---,0.00,VWS V14.01,2013-01-05 01:21:00,
2013-01-04 20:26:00,24.3,13.9,30.11,WSW,242,6.3,7.2,64,0.00,,---,0.00,VWS V14.01,2013-01-05 01:26:00,
2013-01-04 20:31:00,24.3,14.2,30.11,WSW,244,10.7,10.7,65,0.00,,---,0.00,VWS V14.01,2013-01-05 01:31:00,
2013-01-04 20:36:00,24.1,14.0,30.11,SW,229,11.6,11.6,65,0.00,,---,0.00,VWS V14.01,2013-01-05 01:36:00,
2013-01-04 20:41:00,24.3,14.2,30.11,NW,325,7.2,11.6,65,0.00,,---,0.00,VWS V14.01,2013-01-05 01:41:00,
2013-01-04 20:47:00,24.3,14.6,30.11,SW,221,7.2,9.8,66,0.00,,---,0.00,VWS V14.01,2013-01-05 01:47:00,
2013-01-04 20:52:00,24.1,14.4,30.11,South,188,5.4,7.2,66,0.00,,---,0.00,VWS V14.01,2013-01-05 01:52:00,
2013-01-04 20:57:00,24.1,14.4,30.11,West,271,0.0,7.2,66,0.00,,---,0.00,VWS V14.01,2013-01-05 01:57:00,
2013-01-04 21:02:00,23.9,14.2,30.11,WNW,299,10.7,10.7,66,0.00,,---,0.00,VWS V14.01,2013-01-05 02:02:00,
2013-01-04 21:07:00,23.9,14.2,30.11,SSW,201,7.2,7.2,66,0.00,,---,0.00,VWS V14.01,2013-01-05 02:07:00,
2013-01-04 21:12:00,23.9,14.6,30.11,SSW,208,0.0,11.6,67,0.00,,---,0.00,VWS V14.01,2013-01-05 02:12:00,
2013-01-04 21:17:00,23.9,14.6,30.11,WSW,253,7.2,18.3,67,0.00,,---,0.00,VWS V14.01,2013-01-05 02:17:00,
2013-01-04 21:22:00,23.9,14.9,30.11,South,187,6.3,11.6,68,0.00,,---,0.00,VWS V14.01,2013-01-05 02:22:00,
2013-01-04 21:27:00,24.1,15.1,30.11,WNW,298,16.1,16.1,68,0.00,,---,0.00,VWS V14.01,2013-01-05 02:27:00,
2013-01-04 21:32:00,24.1,15.1,30.11,WSW,244,10.7,17.4,68,0.00,,---,0.00,VWS V14.01,2013-01-05 02:32:00,
2013-01-04 21:37:00,24.1,15.4,30.11,SSW,211,10.7,15.2,69,0.00,,---,0.00,VWS V14.01,2013-01-05 02:37:00,
2013-01-04 21:42:00,23.9,15.2,30.11,NNW,338,7.2,8.1,69,0.00,,---,0.00,VWS V14.01,2013-01-05 02:42:00,
2013-01-04 21:47:00,23.9,15.6,30.11,WNW,295,9.8,16.1,70,0.00,,---,0.00,VWS V14.01,2013-01-05 02:47:00,
2013-01-04 21:52:00,23.9,15.6,30.11,SW,222,4.5,11.6,70,0.00,,---,0.00,VWS V14.01,2013-01-05 02:52:00,
2013-01-04 21:57:00,23.9,15.2,30.11,SSW,203,9.8,10.7,69,0.00,,---,0.00,VWS V14.01,2013-01-05 02:57:00,
2013-01-04 22:02:00,23.9,15.2,30.11,WSW,250,12.5,12.5,69,0.00,,---,0.00,VWS V14.01,2013-01-05 03:02:00,
2013-01-04 22:07:00,24.1,15.7,30.11,WSW,240,11.6,15.2,70,0.00,,---,0.00,VWS V14.01,2013-01-05 03:07:00,
2013-01-04 22:12:00,24.1,16.0,30.11,SSW,207,11.6,11.6,71,0.00,,---,0.00,VWS V14.01,2013-01-05 03:12:00,
2013-01-04 22:17:00,24.1,16.0,30.11,SW,228,11.6,13.4,71,0.00,,---,0.00,VWS V14.01,2013-01-05 03:17:00,
2013-01-04 22:23:00,24.1,16.0,30.14,WNW,300,7.2,7.2,71,0.00,,---,0.00,VWS V14.01,2013-01-05 03:23:00,
2013-01-04 22:28:00,24.1,16.0,30.14,WSW,238,6.3,8.1,71,0.00,,---,0.00,VWS V14.01,2013-01-05 03:28:00,
2013-01-04 22:33:00,24.1,16.0,30.14,West,265,10.7,10.7,71,0.00,,---,0.00,VWS V14.01,2013-01-05 03:33:00,
2013-01-04 22:38:00,24.1,16.4,30.14,SW,233,13.4,13.4,72,0.00,,---,0.00,VWS V14.01,2013-01-05 03:38:00,
2013-01-04 22:43:00,24.1,16.4,30.14,WNW,300,8.1,11.6,72,0.00,,---,0.00,VWS V14.01,2013-01-05 03:43:00,
2013-01-04 22:48:00,23.9,16.2,30.14,West,267,6.3,9.8,72,0.00,,---,0.00,VWS V14.01,2013-01-05 03:48:00,
2013-01-04 22:53:00,23.9,16.2,30.14,West,279,10.7,12.5,72,0.00,,---,0.00,VWS V14.01,2013-01-05 03:53:00,
2013-01-04 22:58:00,23.9,16.5,30.14,NW,304,6.3,15.2,73,0.00,,---,0.00,VWS V14.01,2013-01-05 03:58:00,
2013-01-04 23:03:00,23.9,16.2,30.14,WSW,254,5.4,7.2,72,0.00,,---,0.00,VWS V14.01,2013-01-05 04:03:00,
2013-01-04 23:08:00,23.7,16.4,30.14,West,272,0.0,6.3,73,0.00,,---,0.00,VWS V14.01,2013-01-05 04:08:00,
2013-01-04 23:13:00,23.7,16.4,30.14,West,274,7.2,7.2,73,0.00,,---,0.00,VWS V14.01,2013-01-05 04:13:00,
2013-01-04 23:18:00,23.5,16.2,30.14,SW,227,5.4,5.4,73,0.00,,---,0.00,VWS V14.01,2013-01-05 04:18:00,
2013-01-04 23:23:00,23.5,16.2,30.14,NW,306,5.4,6.3,73,0.00,,---,0.00,VWS V14.01,2013-01-05 04:23:00,
2013-01-04 23:29:00,23.5,15.9,30.14,NW,304,4.5,9.8,72,0.00,,---,0.00,VWS V14.01,2013-01-05 04:29:00,
2013-01-04 23:34:00,23.4,15.7,30.14,WSW,237,6.3,8.1,72,0.00,,---,0.00,VWS V14.01,2013-01-05 04:34:00,
2013-01-04 23:39:00,23.4,16.0,30.14,WNW,287,7.2,11.6,73,0.00,,---,0.00,VWS V14.01,2013-01-05 04:39:00,
2013-01-04 23:44:00,23.2,15.8,30.14,WSW,239,6.3,12.5,73,0.00,,---,0.00,VWS V14.01,2013-01-05 04:44:00,
2013-01-04 23:49:00,23.2,15.8,30.14,WNW,298,8.1,12.5,73,0.00,,---,0.00,VWS V14.01,2013-01-05 04:49:00,
2013-01-04 23:54:00,23.2,15.8,30.14,West,278,8.1,8.1,73,0.00,,---,0.00,VWS V14.01,2013-01-05 04:54:00,
2013-01-04 23:59:00,23.2,15.8,30.14,West,280,6.3,6.3,73,0.00,,---,0.00,VWS V14.01,2013-01-05 04:59:00,